698  
ASUS41 KPHI 250212  
RWRPHI  
 
REGIONAL WEATHER ROUNDUP  
NATIONAL WEATHER SERVICE MOUNT HOLLY NJ  
1000 PM EDT THU SEP 24 2020  
 
NOTE: "FAIR" INDICATES FEW OR NO CLOUDS BELOW 12,000 FEET WITH NO  
SIGNIFICANT WEATHER AND/OR S TO VISIBILITY
.  
 
* = STATION DOES NOT REPORT PRECIPITATION (E.G. RAIN, SNOW, ETC.)  
OR FOG.
 
 
NJZ015>026-250300-  
SOUTHERN NEW JERSEY  
 
CITY SKY/WX TMP DP RH WIND PRES REMARKS
 
POMONA PTCLDY 63 60 90 CALM 30.04S  
WILDWOOD* MOCLDY 62 59 90 CALM 30.05R  
MILLVILLE FOG 58 55 90 CALM 30.04R VSB 3/4  
WRIGHTSTOWN PTCLDY 61 60 97 S6 30.03R  
MOUNT HOLLY PTCLDY 61 59 93 CALM 30.03S  
TRENTON PTCLDY 61 58 90 S5 30.02S  
 

 
NJZ001>014-250300-  
NORTHERN NEW JERSEY  
 
CITY SKY/WX TMP DP RH WIND PRES REMARKS
 
SUSSEX CLEAR 57 56 96 CALM 30.03R  
ANDOVER* N/A 57 55 93 CALM 30.03S  
NEWARK MOCLDY 64 55 72 SW7 30.01S  
TETERBORO CLEAR 65 54 67 CALM 30.00S  
CALDWELL CLEAR 62 55 77 CALM 30.02S  
SOMERVILLE CLEAR 57 55 93 CALM 30.01S  
ALLAIRE* PTCLDY 63 32 31 S5 30.05R  
TOMS RIVER* PTCLDY 59 57 93 CALM 30.05R  
 

 
PAZ043-044-047-054-055-060>062-066>071-250300-  
EASTERN PENNSYLVANIA  
 
CITY SKY/WX TMP DP RH WIND PRES REMARKS
 
PHILADELPHIA MOCLDY 65 60 84 W7 30.03S  
NORTH PHILA PTCLDY 63 58 83 CALM 30.05R  
BLUE BELL* PTCLDY 54 53 97 CALM 30.04S  
DOYLESTOWN PTCLDY 60 56 86 CALM 30.03R  
QUAKERTOWN* CLEAR 57 57 100 CALM 30.04S  
PERKASIE* FAIR 55 55 100 CALM 30.05S  
POTTSTOWN PTCLDY 57 56 96 CALM 30.05R  
LANCASTER MOCLDY 61 56 83 S3 30.03S  
COATESVILLE PTCLDY 61 59 94 CALM 30.06S  
WEST CHESTER FAIR 61 57 88 CALM 30.05R  
READING PTCLDY 63 61 93 CALM 30.02R  
ALLENTOWN PTCLDY 59 56 89 NW3 30.03R  
QN CITY/ALNTWN FAIR 61 57 88 CALM 30.04S  
MOUNT POCONO CLEAR 55 54 96 W5 30.07R  
HAZLETON CLEAR 55 54 94 CALM 30.08F FOG  
LEHIGHTON N/A 52 52 100 CALM 30.05S FOG  
WILKES BARRE CLEAR 61 57 87 SE3 30.02S  
 

 
DEZALL-MDZ008-012-015-019-020-250300-  
DELAWARE AND EASTERN MARYLAND  
 
CITY SKY/WX TMP DP RH WIND PRES REMARKS
 
WILMINGTON PTCLDY 63 59 87 W5 30.04S  
DOVER PTCLDY 62 60 92 CALM 30.04R  
CHESWOLD CLEAR 61 59 94 CALM 30.05R  
GEORGETOWN MOCLDY 63 61 93 SW5 30.05R  
EASTON CLEAR 63 63 100 CALM 30.08S  
STEVENSVILLE MOCLDY 63 N/A N/A CALM 30.04S  
ABERDEEN FOG 57 57 99 CALM 30.04 VSB 5/8  
PATUXENT CLOUDY 66 61 84 W3 30.06  
OCEAN CITY MOCLDY 65 60 84 SW8 30.07R  
WALLOPS ISLAND MOCLDY 65 61 87 SW6 30.07S  
CAMBRIDGE CLEAR 63 63 100 CALM 30.06R  
SALISBURY MOCLDY 64 60 87 SW7 30.06R  
 

 
PAZ001-021-NYZ056-072-MDZ011-DCZ001-250300-  
OTHER NEARBY LOCATIONS  
 
CITY SKY/WX TMP DP RH WIND PRES REMARKS
 
HARRISBURG MOCLDY 63 58 83 CALM 30.02S  
STATE COLLEGE CLEAR 64 57 77 CALM 30.03F  
WILLIAMSPORT PTCLDY 62 56 80 CALM 30.00S  
BINGHAMTON MOCLDY 65 52 62 SW7 30.02R  
NEW YORK CITY CLEAR 69 53 56 SW6 30.03F  
BALTIMORE MOCLDY 64 60 87 CALM 30.03S  
WASHINGTON DC MOCLDY 65 61 87 S7 30.05R  
 

 
 
 
CLICK HERE TO GO TO PREVIOUS BULLETINS.

The Nexlab PA Page
The Nexlab NJ Page
The Nexlab DE Page
The Nexlab MD Page Main Text Page